| time (UTC) | temp C | wind direction | speed KPH | gust KPH | rain 1hr cm | rain 24hr cm | rain mn cm | humidity % | barometer mb |
| 20260506213302 | 11 | 23 | 0.0 | 0.0 | 0.00 | 0.00 | 0.00 | 65 | 1012.2 |
| 20260506211802 | 11 | 23 | 0.0 | 3.2 | 0.00 | 0.00 | 0.00 | 65 | 1012.1 |
| 20260506210302 | 11 | 24 | 3.2 | 6.4 | 0.00 | 0.00 | 0.00 | 64 | 1012.0 |
| 20260506204802 | 11 | 32 | 3.2 | 6.4 | 0.00 | 0.00 | 0.00 | 63 | 1012.1 |
| 20260506203303 | 11 | 34 | 0.0 | 9.7 | 0.00 | 0.00 | 0.00 | 63 | 1011.9 |
| 20260506201802 | 11 | 16 | 0.0 | 0.0 | 0.00 | 0.00 | 0.00 | 62 | 1011.7 |
| 20260506200302 | 11 | 19 | 0.0 | 3.2 | 0.00 | 0.00 | 0.00 | 60 | 1011.7 |
| 20260506194802 | 11 | 24 | 0.0 | 3.2 | 0.00 | 0.00 | 0.00 | 59 | 1011.6 |
| 20260506193302 | 11 | 25 | 0.0 | 6.4 | 0.00 | 0.00 | 0.00 | 58 | 1011.4 |
| 20260506191802 | 11 | 29 | 0.0 | 12.9 | 0.00 | 0.00 | 0.00 | 58 | 1011.3 |
| 20260506190303 | 11 | 60 | 9.7 | 16.1 | 0.00 | 0.00 | 0.00 | 57 | 1011.3 |
| 20260506184803 | 11 | 148 | 0.0 | 12.9 | 0.00 | 0.00 | 0.00 | 57 | 1011.0 |
| 20260506183303 | 11 | 149 | 3.2 | 12.9 | 0.00 | 0.00 | 0.00 | 57 | 1010.9 |
| 20260506181802 | 11 | 108 | 0.0 | 6.4 | 0.00 | 0.00 | 0.00 | 57 | 1010.8 |
| 20260506180303 | 11 | 71 | 0.0 | 6.4 | 0.00 | 0.00 | 0.00 | 57 | 1010.6 |
| 20260506174802 | 11 | 65 | 6.4 | 6.4 | 0.00 | 0.00 | 0.00 | 57 | 1010.3 |
| 20260506173303 | 11 | 94 | 0.0 | 6.4 | 0.00 | 0.00 | 0.00 | 57 | 1010.2 |
| 20260506171802 | 11 | 84 | 3.2 | 9.7 | 0.00 | 0.00 | 0.00 | 56 | 1010.1 |
| 20260506170304 | 11 | 141 | 0.0 | 9.7 | 0.00 | 0.00 | 0.00 | 56 | 1010.0 |
| 20260506164802 | 11 | 95 | 3.2 | 12.9 | 0.00 | 0.00 | 0.00 | 56 | 1010.1 |
| 20260506163303 | 11 | 95 | 6.4 | 16.1 | 0.00 | 0.00 | 0.00 | 55 | 1010.1 |
| 20260506161803 | 11 | 65 | 9.7 | 22.5 | 0.00 | 0.00 | 0.00 | 56 | 1010.2 |
| 20260506160302 | 11 | 91 | 6.4 | 19.3 | 0.00 | 0.00 | 0.00 | 55 | 1010.2 |
| 20260506154803 | 11 | 93 | 0.0 | 16.1 | 0.00 | 0.00 | 0.00 | 53 | 1010.1 |
| 20260506153302 | 11 | 117 | 0.0 | 25.7 | 0.00 | 0.00 | 0.00 | 53 | 1010.1 |
| 20260506151803 | 11 | 97 | 3.2 | 16.1 | 0.00 | 0.00 | 0.00 | 53 | 1010.0 |
| 20260506150304 | 11 | 76 | 6.4 | 19.3 | 0.00 | 0.00 | 0.00 | 55 | 1010.0 |
| 20260506144802 | 11 | 104 | 12.9 | 22.5 | 0.00 | 0.00 | 0.00 | 55 | 1010.0 |
| 20260506143303 | 11 | 127 | 0.0 | 27.4 | 0.00 | 0.00 | 0.00 | 56 | 1010.1 |
| 20260506141803 | 11 | 177 | 0.0 | 19.3 | 0.00 | 0.00 | 0.00 | 54 | 1009.9 |
| 20260506140303 | 11 | 60 | 9.7 | 19.3 | 0.00 | 0.00 | 0.00 | 53 | 1009.9 |
| 20260506134803 | 11 | 128 | 0.0 | 27.4 | 0.00 | 0.00 | 0.00 | 52 | 1009.9 |
| 20260506133303 | 11 | 57 | 22.5 | 37.0 | 0.00 | 0.00 | 0.00 | 51 | 1009.9 |
| 20260506131802 | 11 | 89 | 16.1 | 51.5 | 0.00 | 0.00 | 0.00 | 49 | 1009.7 |
| 20260506130302 | 12 | 42 | 9.7 | 27.4 | 0.00 | 0.00 | 0.00 | 48 | 1009.6 |
| 20260506124802 | 12 | 74 | 0.0 | 22.5 | 0.00 | 0.00 | 0.00 | 50 | 1009.5 |
| 20260506123303 | 12 | 67 | 16.1 | 33.8 | 0.00 | 0.00 | 0.00 | 53 | 1009.4 |
| 20260506121803 | 12 | 96 | 3.2 | 19.3 | 0.00 | 0.00 | 0.00 | 52 | 1009.3 |
| 20260506120303 | 12 | 46 | 0.0 | 16.1 | 0.00 | 0.00 | 0.00 | 53 | 1009.2 |
| 20260506114803 | 13 | 18 | 9.7 | 22.5 | 0.00 | 0.00 | 0.00 | 59 | 1009.1 |
| 20260506113303 | 13 | 4 | 6.4 | 19.3 | 0.00 | 0.00 | 0.00 | 57 | 1009.1 |
| 20260506111802 | 13 | 33 | 6.4 | 19.3 | 0.00 | 0.00 | 0.00 | 56 | 1009.1 |
| 20260506110302 | 14 | 20 | 3.2 | 25.7 | 0.00 | 0.00 | 0.00 | 45 | 1009.0 |
| 20260506104803 | 13 | 187 | 0.0 | 33.8 | 0.00 | 0.00 | 0.00 | 47 | 1009.2 |
| 20260506103303 | 13 | 99 | 6.4 | 19.3 | 0.00 | 0.00 | 0.00 | 48 | 1009.0 |
| 20260506101803 | 12 | 137 | 6.4 | 25.7 | 0.00 | 0.00 | 0.00 | 49 | 1009.0 |
| 20260506100302 | 12 | 115 | 3.2 | 33.8 | 0.00 | 0.00 | 0.00 | 51 | 1008.8 |
| 20260506094803 | 12 | 52 | 16.1 | 27.4 | 0.00 | 0.00 | 0.00 | 51 | 1008.9 |
| 20260506093302 | 12 | 79 | 30.6 | 43.5 | 0.00 | 0.00 | 0.00 | 56 | 1008.9 |
| 20260506091803 | 12 | 103 | 12.9 | 33.8 | 0.00 | 0.00 | 0.00 | 58 | 1008.8 |
| 20260506090302 | 11 | 86 | 3.2 | 30.6 | 0.00 | 0.00 | 0.00 | 62 | 1008.8 |
| 20260506084802 | 12 | 115 | 3.2 | 19.3 | 0.00 | 0.00 | 0.00 | 60 | 1008.6 |
| 20260506083303 | 11 | 135 | 0.0 | 19.3 | 0.00 | 0.00 | 0.00 | 61 | 1008.5 |
| 20260506081803 | 12 | 15 | 3.2 | 16.1 | 0.00 | 0.00 | 0.00 | 66 | 1008.3 |
| 20260506080303 | 12 | 23 | 9.7 | 16.1 | 0.00 | 0.00 | 0.00 | 68 | 1008.2 |
| 20260506073303 | 11 | 55 | 3.2 | 19.3 | 0.00 | 0.00 | 0.00 | 72 | 1008.2 |
| 20260506071803 | 11 | 15 | 0.0 | 19.3 | 0.00 | 0.00 | 0.00 | 74 | 1008.2 |
| 20260506070303 | 10 | 48 | 0.0 | 22.5 | 0.00 | 0.00 | 0.00 | 75 | 1008.3 |
| 20260506061803 | 10 | 55 | 3.2 | 9.7 | 0.00 | 0.00 | 0.00 | 80 | 1007.9 |
| 20260506060303 | 10 | 19 | 6.4 | 9.7 | 0.00 | 0.00 | 0.00 | 80 | 1007.9 |
| 20260506050303 | 9 | 12 | 0.0 | 6.4 | 0.00 | 0.00 | 0.00 | 78 | 1008.1 |
| 20260506044803 | 9 | 19 | 0.0 | 9.7 | 0.00 | 0.00 | 0.00 | 78 | 1008.0 |
| 20260506043302 | 8 | 17 | 0.0 | 9.7 | 0.00 | 0.00 | 0.00 | 78 | 1008.0 |
| 20260506041803 | 8 | 48 | 0.0 | 12.9 | 0.00 | 0.00 | 0.00 | 78 | 1008.0 |
| 20260506040302 | 8 | 359 | 9.7 | 9.7 | 0.00 | 0.00 | 0.00 | 78 | 1008.1 |
| 20260506034803 | 8 | 58 | 3.2 | 12.9 | 0.00 | 0.00 | 0.00 | 78 | 1008.1 |
| 20260506033302 | 8 | 24 | 0.0 | 12.9 | 0.00 | 0.00 | 0.00 | 78 | 1008.3 |
| 20260506031803 | 8 | 66 | 0.0 | 16.1 | 0.00 | 0.00 | 0.00 | 77 | 1008.4 |
| 20260506030303 | 8 | 80 | 0.0 | 12.9 | 0.00 | 0.00 | 0.00 | 76 | 1008.4 |
| 20260506024803 | 8 | 26 | 3.2 | 12.9 | 0.00 | 0.00 | 0.00 | 75 | 1008.5 |
| 20260506023302 | 8 | 156 | 3.2 | 12.9 | 0.00 | 0.00 | 0.00 | 75 | 1008.6 |
| 20260506021802 | 8 | 146 | 0.0 | 12.9 | 0.00 | 0.00 | 0.00 | 74 | 1008.5 |
| 20260506020303 | 9 | 97 | 3.2 | 19.3 | 0.00 | 0.00 | 0.00 | 73 | 1008.5 |
| 20260506014803 | 9 | 111 | 0.0 | 16.1 | 0.00 | 0.00 | 0.00 | 73 | 1008.5 |
| 20260506013302 | 9 | 77 | 3.2 | 16.1 | 0.00 | 0.00 | 0.00 | 73 | 1008.6 |
| 20260506011803 | 9 | 61 | 3.2 | 16.1 | 0.00 | 0.00 | 0.00 | 74 | 1008.7 |
| 20260506010303 | 9 | 51 | 3.2 | 9.7 | 0.00 | 0.00 | 0.00 | 75 | 1008.8 |
| 20260506004803 | 9 | 33 | 3.2 | 12.9 | 0.00 | 0.00 | 0.00 | 75 | 1008.9 |
| 20260506003302 | 9 | 26 | 0.0 | 6.4 | 0.00 | 0.00 | 0.00 | 75 | 1009.0 |
| 20260506001802 | 9 | 105 | 0.0 | 9.7 | 0.00 | 0.00 | 0.00 | 75 | 1009.2 |
| 20260506000303 | 9 | 151 | 0.0 | 3.2 | 0.00 | 0.00 | 0.00 | 75 | 1009.3 |
| 20260505234803 | 9 | 39 | 3.2 | 16.1 | 0.00 | 0.00 | 0.00 | 74 | 1009.4 |
| 20260505233302 | 9 | 85 | 0.0 | 19.3 | 0.00 | 0.00 | 0.00 | 74 | 1009.4 |
| 20260505231803 | 9 | 152 | 3.2 | 16.1 | 0.00 | 0.00 | 0.00 | 73 | 1009.6 |
| 20260505230303 | 9 | 64 | 0.0 | 9.7 | 0.00 | 0.00 | 0.00 | 71 | 1009.5 |
| 20260505224803 | 9 | 23 | 3.2 | 9.7 | 0.00 | 0.00 | 0.00 | 71 | 1009.7 |
| 20260505223302 | 9 | 27 | 0.0 | 12.9 | 0.00 | 0.00 | 0.00 | 70 | 1009.8 |
| 20260505221803 | 9 | 116 | 3.2 | 9.7 | 0.00 | 0.00 | 0.00 | 70 | 1009.8 |
| 20260505220302 | 9 | 78 | 0.0 | 9.7 | 0.00 | 0.00 | 0.00 | 70 | 1010.0 |
| 20260505214803 | 9 | 169 | 3.2 | 6.4 | 0.00 | 0.00 | 0.00 | 71 | 1010.0 |